Home > Time Zones > World Clock > Weather > Spain > Cadiz > Past weeks

Flag for Spain Weather past 2 weeks in Cadiz, Cádiz, Spain

Now
59 °F

Clear.


Feels Like: 59 °F
Forecast: 55 / 69 °F
Wind: 5 mph from North

Location: Rota Airport

Current Time: Mar 29, 2015 at 5:34:26 AM

Latest Report: Mar 29, 2015 at 5:00 AM


Visibility: 10 mi

Pressure: 30.27 "Hg

Humidity: 82%

Dew point: 54 °F

Location of CadizLocation

Historic Weather in Cadiz — Graph

°F

Cadiz temperature yesterday

Maximum temperature yesterday: 75 °F (at 1:00 PM)
Minimum temperature yesterday: 52 °F (at 5:00 AM)
Average temperature yesterday: 62 °F

Past Weeks' High & Low Weather Summary

 TemperatureHumidityPressure
High75 °F (Mar 28, 1:00 PM)100% (Mar 20, 5:00 AM)30.36 "Hg (Mar 20, 5:00 AM)
Low45 °F (Mar 14, 5:00 AM)32% (Mar 25, 3:00 PM)29.59 "Hg (Mar 24, 7:00 AM)
Average55 °F83%29.94 "Hg
* Reported Mar 14 3:00 AM — Mar 29 4:00 AM, Cadiz, Weather by CustomWeather, © 2015

Note: Actual official high and low records may vary slightly from our data, if they occured in-between our weather recording intervals... More about our weather records

Advertising

Cadiz weather history for previous 24 hours

 ConditionsComfort  
Time TempWeatherWind HumidityBarometerVisibility
4:00 AM
Sun, Mar 29
55 °FClear.2 mph94%30.30 "Hg10 mi
3:00 AM57 °FClear.No wind88%30.30 "Hg10 mi
1:00 AM59 °FClear.3 mph88%30.30 "Hg10 mi
12:00 AM61 °FClear.1 mph83%30.30 "Hg10 mi
11:00 PM
Sat, Mar 28
61 °FClear.1 mph88%30.30 "Hg10 mi
10:00 PM63 °FClear.8 mph83%30.30 "Hg10 mi
9:00 PM63 °FClear.9 mph83%30.30 "Hg10 mi
8:00 PM64 °FClear.10 mph78%30.30 "Hg10 mi
7:00 PM70 °FSunny.7 mph64%30.27 "Hg10 mi
6:00 PM73 °FPassing clouds.10 mph57%30.27 "HgN/A
5:00 PM75 °FSunny.13 mph54%30.27 "Hg10 mi
4:00 PM72 °FPassing clouds.13 mph65%30.27 "HgN/A
3:00 PM72 °FPassing clouds.12 mph65%30.30 "HgN/A
2:00 PM66 °FPassing clouds.9 mph83%30.33 "HgN/A
1:00 PM75 °FPassing clouds.7 mph61%30.33 "HgN/A
12:00 PM68 °FSunny.3 mph78%30.36 "Hg10 mi
11:00 AM66 °FPassing clouds.3 mph73%30.36 "HgN/A
10:00 AM61 °FSunny.2 mph83%30.36 "Hg10 mi
9:00 AM55 °FSunny.2 mph94%30.33 "Hg10 mi
8:00 AM54 °FPassing clouds.3 mph94%30.33 "HgN/A
7:00 AM54 °FClear.2 mph94%30.30 "Hg10 mi
6:00 AM52 °FPassing clouds.3 mph94%30.30 "HgN/A
5:00 AM52 °FClear.2 mph94%30.30 "Hg10 mi
Weather by CustomWeather, © 2015

See weather overviewHow to use our weather pages